TimePST,TemperatureF,Dew PointF,Humidity,Sea Level PressureIn,VisibilityMPH,Wind Direction,Wind SpeedMPH,Gust SpeedMPH,PrecipitationIn,Events,Conditions,WindDirDegrees,DateUTC
12:53 AM,41.0,36.0,82,29.87,5.0,WSW,8.1,-,0.00,,Haze,240,2012-12-05 08:53:00
1:53 AM,41.0,36.0,82,29.91,2.5,West,9.2,24.2,0.03,Rain,Light Rain,260,2012-12-05 09:53:00
2:00 AM,41.0,35.6,81,29.91,6.0,West,11.5,-,0.00,,Haze,260,2012-12-05 10:00:00
2:53 AM,41.0,35.1,79,29.96,6.0,WSW,11.5,17.3,0.00,,Haze,240,2012-12-05 10:53:00
3:53 AM,42.1,36.0,79,29.99,6.0,West,12.7,21.9,0.00,,Haze,270,2012-12-05 11:53:00
4:53 AM,39.0,35.1,86,30.01,7.0,South,5.8,-,0.00,,Scattered Clouds,190,2012-12-05 12:53:00
6:53 AM,37.0,36.0,96,30.07,6.0,East,3.5,-,0.06,,Partly Cloudy,90,2012-12-05 14:53:00
7:53 AM,37.0,36.0,96,30.09,5.0,East,6.9,-,N/A,,Mostly Cloudy,80,2012-12-05 15:53:00
8:53 AM,37.0,36.0,96,30.11,4.0,Calm,Calm,-,N/A,,Overcast,0,2012-12-05 16:53:00
9:53 AM,42.1,39.0,89,30.14,5.0,East,3.5,-,N/A,,Overcast,100,2012-12-05 17:53:00
10:53 AM,43.0,39.9,89,30.14,5.0,Variable,3.5,-,N/A,,Overcast,0,2012-12-05 18:53:00
11:53 AM,45.0,41.0,86,30.14,5.0,Calm,Calm,-,0.00,,Overcast,0,2012-12-05 19:53:00
12:53 PM,46.0,37.9,73,30.14,5.0,SSW,9.2,-,N/A,,Haze,210,2012-12-05 20:53:00
1:53 PM,46.9,39.0,74,30.14,6.0,SSW,8.1,-,N/A,,Haze,200,2012-12-05 21:53:00
2:53 PM,45.0,39.9,82,30.14,3.0,SW,3.5,-,0.00,Rain,Light Rain,220,2012-12-05 22:53:00
3:01 PM,44.6,41.0,87,30.14,4.0,SW,10.4,16.1,0.01,Rain,Light Rain,220,2012-12-05 23:01:00
3:29 PM,44.6,39.2,81,30.14,5.0,SSW,6.9,-,0.01,,Haze,210,2012-12-05 23:29:00
3:53 PM,45.0,39.9,82,30.15,5.0,South,5.8,-,0.01,,Haze,190,2012-12-05 23:53:00
4:53 PM,44.1,39.9,85,30.15,7.0,SE,5.8,-,N/A,,Overcast,130,2012-12-06 00:53:00
5:53 PM,43.0,39.9,89,30.16,6.0,SE,4.6,-,N/A,,Overcast,140,2012-12-06 01:53:00
6:53 PM,43.0,39.9,89,30.16,6.0,Calm,Calm,-,N/A,,Overcast,0,2012-12-06 02:53:00
7:49 PM,42.8,39.2,87,30.15,2.5,Calm,Calm,-,0.01,Rain,Light Rain,0,2012-12-06 03:49:00
7:53 PM,42.1,39.9,92,30.15,2.5,Calm,Calm,-,0.02,Rain,Light Rain,0,2012-12-06 03:53:00
8:05 PM,42.8,41.0,93,30.15,5.0,Calm,Calm,-,0.00,Rain,Light Rain,0,2012-12-06 04:05:00
8:53 PM,42.1,41.0,96,30.15,6.0,Calm,Calm,-,0.00,,Overcast,0,2012-12-06 04:53:00
9:15 PM,41.0,39.2,93,30.14,7.0,ESE,3.5,-,N/A,,Overcast,120,2012-12-06 05:15:00
9:40 PM,42.8,41.0,93,30.14,2.0,Calm,Calm,-,0.01,Rain,Rain,0,2012-12-06 05:40:00
9:49 PM,42.8,41.0,93,30.14,1.8,Calm,Calm,-,0.03,Rain,Light Rain,0,2012-12-06 05:49:00
9:53 PM,42.1,41.0,96,30.14,1.8,Calm,Calm,-,0.04,Rain,Rain,0,2012-12-06 05:53:00
10:02 PM,42.8,41.0,93,30.14,2.5,Calm,Calm,-,0.02,Rain,Light Rain,0,2012-12-06 06:02:00
10:16 PM,42.8,41.0,93,30.14,1.5,Calm,Calm,-,0.06,Rain,Light Rain,0,2012-12-06 06:16:00
10:20 PM,42.8,41.0,93,30.14,3.0,Calm,Calm,-,0.07,Rain,Light Rain,0,2012-12-06 06:20:00
10:53 PM,42.1,41.0,96,30.15,6.0,Calm,Calm,-,0.07,,Overcast,0,2012-12-06 06:53:00
11:30 PM,42.8,41.0,93,30.14,4.0,South,3.5,-,0.00,Rain,Light Rain,180,2012-12-06 07:30:00
11:39 PM,42.8,41.0,93,30.15,1.8,SW,9.2,-,0.01,Rain,Rain,220,2012-12-06 07:39:00
11:41 PM,42.8,41.0,93,30.15,1.2,WSW,6.9,-,0.02,Rain,Heavy Rain,250,2012-12-06 07:41:00
11:53 PM,43.0,41.0,93,30.16,1.8,Variable,5.8,-,0.08,Rain,Rain,0,2012-12-06 07:53:00